Wind_Speed
27 31 33 31 29 33 36 38 41 41 43 42 42 46 50 53 54 57 60 63 64 64 64 65 62 59 58 58 60 63 63 62 56 55 47 51 46 46 46 46 40 41 39 35 37
27 30 33 33 34 38 41 43 45 41 40 41 45 50 54 58 62 62 64 64 66 66 67 67 69 66 63 60 62 65 68 64 58 59 54 55 49 52 50 50 44 43 43 40 41
33 37 39 42 42 43 44 46 46 42 42 46 49 55 59 61 63 64 65 69 71 70 66 68 69 68 64 62 63 62 69 66 63 62 57 54 50 56 53 53 48 45 44 42 44
36 38 38 40 44 43 43 45 45 41 45 49 56 59 63 64 68 71 68 65 66 68 68 70 67 66 64 60 56 62 62 64 66 68 57 53 54 57 56 57 55 51 47 46 46
39 38 39 40 42 45 46 45 45 44 49 56 60 68 69 70 71 75 73 71 71 70 67 64 59 55 60 53 56 59 59 66 68 68 58 55 56 59 58 58 56 54 51 49 48
41 42 42 44 45 46 46 48 49 49 52 63 68 73 73 75 79 78 77 75 68 60 56 53 51 49 53 54 56 52 58 64 67 69 63 59 59 59 61 60 60 58 55 53 51
40 41 42 43 46 44 46 50 49 51 60 68 73 77 77 81 84 82 77 70 57 48 44 45 43 46 51 54 52 53 56 54 64 68 67 62 63 58 62 61 62 61 59 57 55
40 41 44 46 47 48 49 48 51 56 63 72 76 76 81 85 82 80 67 52 42 36 38 38 42 43 48 48 52 53 53 53 54 57 66 67 63 60 61 61 61 62 61 60 58
41 44 43 47 48 49 46 48 53 60 67 74 75 78 84 84 77 61 49 41 36 35 34 36 39 44 45 45 49 52 52 50 48 50 55 65 63 62 65 62 62 62 62 61 60
43 43 45 48 50 48 48 50 56 64 74 73 77 82 86 68 59 45 41 34 32 31 28 32 36 46 48 46 49 49 49 47 47 49 47 57 63 66 65 62 63 61 61 60 60
45 47 48 50 52 50 51 54 59 68 75 78 82 88 69 61 44 35 29 29 28 23 22 27 33 41 43 41 37 38 43 43 37 39 39 43 56 65 62 60 61 62 61 59 58
48 50 50 51 53 53 60 61 66 74 74 82 89 73 69 48 34 28 25 20 17 14 15 20 26 29 43 40 36 38 36 37 35 41 37 36 50 60 62 60 59 57 59 56 58
50 52 53 52 54 56 63 65 73 79 81 90 75 69 55 37 22 23 19 15 13 10 8 11 14 26 35 38 33 31 32 34 33 37 37 37 40 54 63 60 57 56 55 54 55
52 54 54 55 55 59 65 71 77 82 83 72 68 59 42 22 15 14 12 10 6 7 4 9 14 23 27 30 37 29 31 29 34 35 34 37 38 43 53 57 56 55 53 53 52
55 57 58 55 57 63 68 73 79 83 86 78 62 49 29 15 8 9 6 5 9 6 4 9 23 14 30 32 33 34 28 33 31 32 34 31 37 32 46 52 53 52 51 49 48
57 58 59 57 60 64 70 75 80 83 78 71 52 34 14 11 8 8 9 5 6 6 3 4 20 25 22 27 30 37 29 19 22 30 30 29 30 32 38 42 48 49 47 45 45
58 59 60 59 61 66 71 76 80 83 78 61 41 18 8 7 6 3 6 4 1 3 1 2 10 22 28 29 27 26 27 26 22 28 26 26 29 31 37 38 44 45 45 43 42
59 61 61 60 62 66 71 77 80 80 70 48 25 11 7 4 4 2 5 3 3 4 5 3 6 16 21 27 25 26 25 21 18 21 23 24 27 31 29 34 38 41 41 42 41
58 60 60 59 61 66 71 76 79 79 67 30 11 7 6 8 5 4 3 3 4 3 9 6 4 10 14 18 22 23 23 24 19 22 22 24 25 25 28 32 35 37 38 39 38
58 59 59 59 61 66 71 76 78 76 53 22 7 5 2 3 6 5 4 4 6 5 15 6 4 9 11 14 19 20 22 24 24 20 17 20 26 28 29 31 31 36 36 36 37
57 58 59 58 61 66 70 74 76 72 48 19 9 5 5 8 5 4 5 7 6 5 11 13 6 13 15 20 17 14 18 21 21 19 13 10 21 24 25 28 30 30 31 31 32
54 58 56 58 61 65 70 74 74 65 41 14 10 6 7 8 4 3 1 7 7 3 15 13 8 12 14 16 14 14 16 21 22 16 14 13 14 18 22 24 26 28 27 26 28
53 56 55 57 61 65 70 72 68 55 34 12 7 5 5 7 4 3 4 3 8 5 8 14 12 7 12 17 17 17 18 18 17 12 15 14 14 16 18 21 23 25 26 28 32
53 54 54 54 60 65 68 69 63 45 27 8 6 5 3 5 8 7 4 6 5 7 7 11 16 15 13 12 19 19 17 17 17 16 13 16 15 17 19 20 21 23 24 25 27
53 52 53 56 59 64 67 67 56 37 19 6 7 4 4 5 7 7 8 4 9 9 11 8 9 17 15 14 16 18 20 17 15 14 14 16 17 18 17 19 19 20 21 21 21
51 51 52 55 59 62 65 62 48 30 12 5 7 5 6 6 9 8 10 7 5 11 10 14 9 13 14 11 12 18 18 16 16 17 17 17 19 20 19 17 16 17 18 19 20
48 50 50 52 57 61 62 57 37 20 10 4 5 7 8 9 8 11 11 9 6 9 9 9 13 10 15 12 10 15 17 15 16 16 17 18 16 15 15 15 15 15 16 17 18
Wind_Direction
318 311 309 306 295 295 298 298 300 298 301 307 308 310 312 312 309 306 303 301 301 297 294 290 285 278 270 265 259 255 250 248 245 246 240 236 231 234 232 236 233 234 235 229 228
321 320 317 313 302 299 303 296 297 300 307 309 310 312 313 309 307 305 302 299 296 294 290 285 280 275 270 264 258 254 249 246 242 240 237 236 227 230 231 233 230 231 232 229 227
315 314 312 312 307 305 306 301 303 303 309 312 311 312 310 308 304 301 298 294 292 289 286 280 274 271 265 261 259 253 250 244 241 238 234 236 230 230 230 231 229 228 229 230 230
313 313 310 307 307 305 302 301 303 311 313 312 311 312 311 309 306 303 301 296 288 281 277 277 274 271 265 261 257 251 247 240 238 240 235 230 230 229 228 229 228 227 227 226 228
315 317 314 312 311 309 303 302 306 310 311 314 315 316 310 309 305 303 300 294 288 282 279 275 267 263 260 254 248 244 241 236 234 235 232 230 229 228 228 229 229 227 227 226 226
315 316 315 313 311 309 305 303 308 312 317 315 316 316 311 307 308 305 299 295 291 286 279 270 259 250 246 243 240 239 236 235 229 232 228 226 226 224 227 227 228 227 225 225 225
317 319 317 315 314 311 305 308 315 316 317 318 316 314 312 310 308 303 300 297 289 282 274 263 246 239 238 237 236 233 233 232 233 230 228 223 223 223 224 226 226 227 226 225 226
318 317 318 316 316 313 311 315 319 319 319 318 318 315 313 311 309 306 304 295 289 282 268 254 240 233 233 232 230 230 233 230 235 232 230 222 220 220 224 226 227 226 226 225 226
317 318 318 318 317 315 316 319 320 320 319 320 318 316 314 312 309 308 298 292 290 281 271 255 238 229 231 228 229 227 229 231 234 233 232 228 221 221 220 223 226 226 225 226 226
319 319 317 319 317 316 319 322 323 323 319 320 318 317 315 315 312 305 294 291 288 285 268 251 236 226 225 224 223 226 226 229 231 236 234 229 223 225 222 220 225 226 224 225 226
322 320 320 320 318 318 322 324 324 324 325 324 320 320 318 319 313 301 294 296 294 283 262 245 236 230 223 228 225 224 228 228 235 238 236 236 226 231 223 221 223 225 225 224 225
324 323 322 320 320 324 327 327 324 326 330 325 325 323 322 320 311 303 307 302 294 270 243 236 235 225 216 221 220 209 225 229 230 233 238 236 227 228 224 226 223 224 226 224 226
328 327 324 321 325 329 331 327 326 328 331 326 326 325 322 318 309 305 310 302 287 241 243 234 227 217 212 213 214 215 219 232 235 240 238 237 232 226 225 225 225 224 225 224 226
328 329 326 325 329 331 333 329 328 331 333 330 328 327 324 319 316 305 318 314 227 204 226 222 191 196 196 197 208 219 190 202 240 241 238 235 234 229 226 226 225 226 225 224 226
325 327 329 328 329 333 331 329 331 333 331 331 327 328 322 320 325 324 330 17 221 245 240 236 209 161 196 214 213 208 226 225 219 232 236 236 229 229 224 224 226 226 226 225 225
326 326 330 330 331 333 331 331 333 333 335 331 332 333 332 331 331 342 343 337 225 258 264 228 213 209 204 210 207 211 222 216 228 228 232 232 231 232 227 224 225 225 225 226 224
327 327 330 331 333 334 332 332 336 336 334 335 334 335 335 311 322 30 33 10 42 264 298 170 191 195 202 203 201 192 199 197 202 215 224 227 227 219 225 219 222 222 223 224 223
325 327 331 332 334 334 332 333 337 336 336 338 337 345 9 331 339 296 333 96 113 176 224 138 182 189 196 197 197 204 196 215 224 227 230 228 227 224 224 223 220 219 219 221 223
326 327 330 333 334 333 332 335 337 336 337 339 342 324 13 341 341 307 352 163 178 172 164 167 179 145 177 183 188 192 202 212 210 221 229 224 222 224 216 216 219 219 219 220 222
327 327 329 331 334 332 333 337 339 338 340 329 326 312 315 323 315 303 269 216 210 200 195 186 225 170 178 163 181 194 198 205 210 220 219 226 213 213 210 209 211 215 218 220 223
327 328 330 332 333 332 335 338 340 338 338 320 303 297 264 262 328 303 232 230 210 208 195 211 193 189 186 179 194 203 190 195 206 215 204 217 216 209 203 206 207 208 212 216 222
327 327 330 330 330 333 336 340 341 339 338 316 286 291 269 262 315 281 320 226 220 196 201 183 174 192 188 198 190 190 192 194 217 210 208 198 197 198 201 201 203 208 215 224 231
326 326 328 330 329 335 338 341 341 338 336 326 255 278 277 278 265 273 287 245 225 182 197 199 203 184 194 204 205 205 207 200 207 202 215 214 205 202 200 205 211 217 223 230 234
323 324 326 328 330 336 339 342 341 338 332 321 232 270 285 267 259 253 291 242 212 221 218 212 213 207 205 204 211 214 213 216 215 222 223 216 206 203 202 206 209 215 220 224 228
322 323 325 327 332 336 340 341 341 338 326 284 223 266 300 308 275 259 261 282 225 201 194 191 211 213 219 219 210 206 214 211 210 204 200 205 202 201 202 206 208 209 212 217 222
320 321 325 326 332 338 341 341 342 338 324 249 234 262 293 290 278 262 246 269 244 219 211 210 208 199 205 190 200 211 209 212 204 197 203 204 202 200 200 198 198 204 210 217 224
318 319 324 329 334 340 341 341 343 341 339 247 257 274 292 287 285 256 246 255 285 215 208 212 217 205 196 211 213 207 208 211 203 203 202 203 194 188 189 194 201 209 218 226 234
Height
5786 5783 5780 5777 5774 5770 5766 5762 5758 5754 5749 5744 5739 5734 5729 5723 5719 5716 5713 5709 5705 5701 5700 5697 5695 5695 5695 5697 5699 5703 5707 5714 5722 5722 5731 5732 5739 5742 5745 5746 5752 5756 5761 5767 5769
5783 5780 5776 5772 5769 5765 5760 5756 5751 5746 5740 5735 5729 5724 5718 5711 5706 5702 5695 5691 5688 5683 5681 5678 5678 5676 5677 5680 5680 5685 5691 5701 5705 5709 5715 5719 5728 5730 5735 5738 5743 5748 5752 5759 5761
5778 5774 5771 5766 5761 5757 5752 5747 5742 5736 5731 5725 5719 5713 5707 5697 5691 5687 5683 5675 5671 5663 5659 5656 5654 5654 5659 5660 5665 5669 5676 5681 5686 5691 5701 5710 5718 5718 5724 5729 5735 5739 5744 5750 5754
5773 5769 5764 5759 5755 5750 5744 5738 5732 5727 5721 5715 5708 5700 5691 5682 5672 5663 5662 5654 5648 5643 5639 5635 5632 5632 5637 5642 5649 5648 5661 5666 5672 5675 5687 5696 5704 5709 5713 5716 5723 5729 5735 5739 5745
5768 5763 5758 5752 5747 5741 5735 5729 5722 5717 5711 5703 5694 5685 5676 5667 5659 5645 5637 5629 5621 5616 5613 5613 5613 5614 5614 5625 5626 5631 5645 5646 5653 5659 5674 5682 5690 5696 5701 5708 5714 5720 5725 5731 5736
5761 5756 5751 5745 5739 5732 5726 5719 5712 5706 5699 5690 5680 5670 5660 5650 5638 5626 5614 5602 5595 5591 5589 5590 5593 5597 5599 5603 5608 5624 5624 5628 5638 5644 5656 5668 5675 5684 5690 5697 5703 5710 5714 5720 5727
5755 5750 5743 5738 5731 5723 5716 5709 5701 5695 5687 5677 5667 5656 5643 5630 5615 5601 5589 5579 5572 5570 5570 5570 5575 5579 5587 5588 5599 5606 5609 5616 5618 5630 5641 5653 5659 5673 5677 5685 5691 5698 5704 5711 5717
5747 5742 5735 5729 5722 5715 5708 5699 5691 5683 5675 5663 5651 5638 5625 5609 5593 5578 5568 5559 5555 5555 5555 5555 5560 5566 5570 5578 5585 5592 5597 5602 5612 5621 5629 5639 5651 5661 5667 5673 5680 5687 5694 5700 5707
5740 5734 5727 5721 5714 5706 5698 5689 5679 5671 5661 5647 5634 5620 5603 5587 5573 5560 5552 5547 5543 5541 5542 5543 5548 5556 5561 5566 5574 5579 5588 5597 5604 5607 5615 5625 5641 5647 5650 5661 5668 5675 5683 5690 5696
5732 5726 5719 5711 5704 5697 5689 5680 5669 5659 5643 5633 5618 5599 5584 5568 5554 5548 5540 5536 5532 5530 5530 5532 5536 5542 5549 5555 5561 5574 5582 5588 5594 5598 5606 5614 5629 5629 5640 5652 5657 5664 5671 5679 5688
5725 5718 5711 5703 5695 5687 5680 5670 5663 5650 5631 5617 5599 5581 5563 5553 5540 5536 5532 5527 5523 5522 5522 5524 5526 5532 5545 5553 5565 5570 5576 5583 5589 5590 5599 5606 5616 5617 5633 5641 5645 5653 5660 5671 5677
5717 5710 5702 5694 5685 5676 5666 5655 5644 5632 5625 5597 5581 5561 5549 5539 5533 5527 5525 5521 5519 5517 5518 5520 5523 5530 5538 5546 5555 5564 5569 5576 5581 5585 5593 5598 5604 5610 5621 5630 5637 5645 5652 5664 5670
5710 5702 5694 5685 5676 5666 5655 5643 5630 5615 5602 5584 5564 5549 5537 5530 5527 5523 5520 5518 5516 5517 5517 5518 5522 5525 5533 5542 5550 5557 5565 5571 5576 5581 5587 5591 5595 5601 5611 5620 5631 5637 5645 5653 5661
5702 5694 5685 5676 5668 5656 5645 5632 5618 5602 5587 5564 5549 5537 5529 5524 5523 5521 5518 5517 5516 5517 5517 5519 5520 5523 5531 5537 5546 5553 5560 5566 5569 5575 5581 5585 5590 5594 5604 5612 5620 5629 5637 5645 5652
5695 5686 5676 5665 5656 5646 5636 5622 5607 5591 5574 5556 5541 5530 5523 5523 5521 5520 5517 5516 5516 5517 5518 5520 5519 5519 5529 5536 5542 5549 5554 5561 5566 5570 5574 5578 5584 5591 5595 5604 5613 5622 5629 5637 5644
5687 5678 5668 5657 5646 5637 5626 5613 5598 5582 5563 5547 5529 5525 5521 5520 5519 5518 5516 5515 5516 5517 5516 5516 5517 5521 5526 5531 5539 5545 5551 5557 5562 5565 5569 5575 5580 5585 5590 5600 5605 5614 5623 5631 5637
5679 5670 5660 5649 5640 5628 5617 5605 5590 5574 5551 5538 5528 5523 5521 5520 5519 5517 5517 5517 5517 5517 5517 5517 5517 5519 5525 5531 5537 5543 5549 5554 5557 5560 5566 5570 5574 5580 5583 5591 5599 5610 5617 5624 5630
5672 5662 5653 5641 5631 5620 5610 5597 5583 5564 5542 5528 5525 5523 5522 5521 5519 5518 5517 5516 5516 5518 5519 5520 5521 5522 5525 5530 5536 5542 5547 5552 5555 5559 5563 5566 5569 5572 5581 5587 5595 5603 5610 5616 5623
5664 5654 5645 5634 5624 5614 5603 5590 5574 5555 5538 5528 5524 5524 5523 5521 5520 5518 5517 5518 5518 5518 5521 5521 5523 5523 5526 5530 5535 5540 5545 5549 5554 5556 5560 5564 5567 5572 5576 5583 5590 5597 5605 5611 5618
5657 5646 5637 5627 5617 5607 5596 5583 5566 5548 5533 5526 5524 5524 5523 5522 5521 5519 5518 5518 5519 5519 5520 5522 5524 5525 5527 5531 5535 5539 5544 5548 5552 5556 5559 5560 5563 5565 5572 5578 5585 5592 5599 5606 5612
5648 5639 5630 5621 5612 5602 5590 5577 5559 5544 5531 5527 5525 5523 5522 5522 5520 5519 5519 5519 5519 5520 5520 5523 5525 5527 5529 5531 5535 5540 5542 5546 5550 5554 5556 5559 5561 5564 5569 5575 5582 5588 5595 5601 5607
5641 5632 5624 5615 5607 5596 5585 5570 5553 5538 5528 5525 5524 5523 5522 5521 5521 5520 5519 5518 5519 5520 5520 5523 5525 5527 5530 5532 5535 5539 5541 5545 5550 5554 5556 5557 5560 5562 5567 5572 5578 5584 5590 5596 5601
5635 5626 5619 5610 5600 5589 5577 5564 5549 5533 5526 5523 5523 5523 5521 5521 5521 5520 5519 5519 5519 5520 5521 5523 5525 5528 5530 5533 5535 5538 5541 5544 5548 5550 5554 5557 5559 5561 5565 5570 5575 5581 5586 5590 5595
5629 5620 5613 5605 5594 5583 5572 5558 5543 5531 5524 5522 5523 5522 5521 5520 5520 5521 5520 5520 5519 5519 5520 5522 5525 5527 5530 5532 5534 5537 5540 5543 5546 5550 5552 5555 5558 5561 5565 5568 5572 5577 5581 5585 5589
5623 5614 5607 5598 5589 5578 5567 5552 5537 5529 5523 5521 5523 5522 5521 5520 5520 5520 5520 5520 5520 5520 5521 5522 5524 5526 5529 5530 5533 5535 5538 5542 5545 5548 5551 5553 5556 5559 5562 5566 5570 5574 5578 5582 5585
5616 5608 5601 5593 5582 5571 5559 5547 5533 5525 5522 5522 5523 5522 5520 5520 5520 5519 5519 5520 5519 5520 5520 5522 5524 5525 5528 5530 5532 5534 5537 5541 5544 5546 5549 5552 5554 5557 5561 5565 5569 5573 5576 5579 5582
5608 5602 5595 5587 5576 5566 5555 5541 5530 5524 5523 5522 5522 5521 5520 5520 5519 5518 5519 5519 5518 5518 5520 5521 5523 5525 5527 5529 5531 5534 5537 5540 5543 5546 5548 5550 5555 5558 5561 5565 5568 5571 5573 5576 5578